Location: Cold Norton
(51.6667°N, 0.6667°E)
Time: 16:31:49
(UTC+00:00)

Meteor 2-12 Rocket - Pass Details

Date: 18 November 2025
Orbit: 934 x 958 km, 82.5° (Epoch: 12 December)

Event Time Altitude Azimuth Distance (km) Brightness Sun altitude
Rises 16:59:47 0° 350° (N) 3,630 7.4 -8.7°
Reaches altitude 10° 17:02:20 10° 354° (N) 2,677 6.7 -9.1°
Maximum altitude 17:08:24 64° 76° (ENE) 1,043 4.4 -10.0°
Drops below altitude 10° 17:14:24 10° 157° (SSE) 2,645 6.7 -10.9°
Sets 17:16:54 0° 161° (SSE) 3,583 7.4 -11.2°
